Temperature
14 15 15 15 15 15 15 15 15 15 15 15 15 15 15 15 15 15 15 15 15 15 15 15 15 15 15 15 15 15 15 15 14 14 14 14 14 14 14 14 14 14 14
15 15 15 15 15 15 15 15 15 15 15 15 15 15 15 15 15 15 15 15 15 15 15 15 14 15 15 15 15 15 14 14 14 14 14 14 14 14 14 14 14 14 14
14 14 14 15 14 14 14 14 15 15 15 15 15 15 15 15 15 15 15 15 15 15 14 14 14 14 14 14 14 14 14 14 14 14 14 14 14 13 14 14 13 13 13
14 14 14 14 14 14 14 14 14 14 15 14 14 14 14 14 14 14 15 14 14 14 14 14 14 14 14 14 14 14 14 14 14 14 13 13 13 13 14 13 13 13 13
14 14 14 14 14 14 14 14 14 14 14 14 14 14 14 14 14 14 14 14 14 14 14 14 14 14 14 14 14 14 14 13 13 13 13 13 13 13 13 13 13 13 13
14 14 14 14 14 14 14 14 14 14 14 14 14 14 14 14 14 14 14 14 14 14 14 14 14 14 14 13 13 13 13 13 13 13 13 13 13 13 13 13 13 13 13
13 13 13 13 13 14 14 14 13 13 13 13 14 14 14 14 14 14 14 14 14 14 14 13 13 13 13 13 13 13 13 13 13 13 13 13 13 13 13 13 13 13 12
13 13 13 13 13 13 13 13 13 13 13 13 13 13 13 14 14 14 14 14 14 13 13 13 13 13 13 13 13 13 13 13 13 13 13 13 13 13 12 12 12 12 12
12 12 13 13 13 13 13 13 13 13 13 13 13 13 13 13 13 13 13 13 13 13 13 13 13 13 13 13 13 13 13 13 13 13 13 12 12 12 12 12 12 12 12
12 12 12 12 12 13 13 13 13 13 13 13 13 13 13 13 13 13 13 13 13 13 13 13 13 13 13 13 13 13 13 12 12 12 12 12 12 12 12 12 12 12 12
12 12 12 12 12 12 12 12 12 13 13 13 13 13 13 13 13 13 13 13 13 13 13 13 13 12 12 12 12 12 12 12 12 12 12 12 12 12 12 12 11 11 11
11 11 12 12 12 12 12 12 12 12 12 12 12 12 13 13 12 13 13 12 12 12 12 12 12 12 12 12 12 12 12 12 12 12 12 11 11 11 11 11 11 11 11
11 11 11 11 11 11 12 12 12 12 12 12 12 12 12 12 12 12 12 12 12 12 12 12 12 12 12 12 12 12 12 12 12 12 11 11 11 11 11 11 11 11 11
11 11 11 11 11 11 11 11 11 11 12 12 12 12 12 12 12 12 12 12 11 11 11 11 11 11 11 11 11 11 11 11 11 11 11 11 11 11 10 10 10 10 10
10 10 10 10 10 11 11 11 11 11 11 11 11 11 11 11 11 11 11 11 11 11 11 11 11 11 11 11 11 11 11 11 11 11 11 11 11 10 10 10 10 10 10
10 10 10 10 10 10 10 10 10 10 10 10 11 11 11 11 11 11 11 11 11 11 10 10 10 10 11 10 10 10 10 10 10 10 10 10 10 10 10 9 9 9 9
9 9 9 9 9 9 10 10 10 10 10 10 10 10 10 10 10 10 10 10 10 10 10 10 10 10 10 10 10 10 10 10 10 10 10 10 10 10 9 9 9 9 9
9 9 9 9 9 9 9 9 9 9 9 9 9 9 9 9 10 10 9 9 9 9 9 9 9 9 9 9 9 9 9 9 9 9 9 9 9 9 9 9 9 9 8
9 9 9 9 8 8 8 8 8 9 9 9 9 9 9 9 9 9 9 9 9 9 9 9 9 9 9 9 9 9 9 9 9 9 8 9 9 8 8 8 8 8 8
8 8 8 8 8 8 8 8 8 8 8 8 8 8 8 8 8 8 8 8 8 8 8 8 8 8 8 8 8 8 8 8 8 8 8 8 8 8 8 8 8 8 8
8 8 8 8 8 8 8 8 8 8 8 8 7 7 7 7 7 7 7 7 7 7 7 7 7 7 7 7 7 7 7 7 7 7 7 7 7 7 7 7 7 7 7
8 7 7 7 7 7 7 7 7 7 7 7 7 7 7 7 7 7 7 7 7 7 7 6 6 6 6 6 6 6 6 6 6 6 6 6 6 6 6 6 6 6 6
7 7 7 7 7 7 7 7 7 7 7 7 7 7 7 6 6 6 6 6 6 6 6 6 6 5 5 5 5 4 4 4 5 5 6 6 6 6 6 6 6 6 6
7 7 6 6 6 6 6 6 6 6 6 6 6 6 6 6 6 6 6 6 6 5 5 5 5 5 4 4 4 4 3 3 3 3 4 5 5 5 5 5 5 5 5
6 6 6 6 6 6 6 6 6 5 5 6 5 5 5 5 5 5 5 5 5 5 5 5 4 4 4 4 3 3 3 3 2 2 2 3 4 4 4 4 4 4 4
5 5 5 5 5 5 5 5 5 5 5 5 5 5 5 5 5 4 4 4 4 4 4 4 4 4 3 3 3 2 2 2 2 1 1 2 2 3 4 4 4 4 4
Wind_Speed
2 3 8 9 10 11 11 12 12 12 12 12 12 12 13 13 13 13 13 13 12 12 12 12 12 13 13 13 14 13 13 13 13 12 12 12 12 12 12 12 11 10 12
4 6 9 10 11 11 11 12 12 12 12 12 12 12 12 12 12 12 12 12 12 11 11 11 12 12 12 13 13 13 13 12 12 12 12 11 11 11 11 11 10 9 10
5 7 9 11 11 12 12 12 12 12 12 12 12 12 12 12 12 12 12 12 11 11 11 11 11 11 11 11 12 12 11 11 11 11 10 9 9 10 10 10 10 9 10
6 8 8 11 11 12 12 12 12 12 12 12 12 13 13 12 12 12 11 12 11 11 11 11 11 11 10 10 10 10 10 10 10 9 8 6 6 8 8 9 9 9 9
7 8 9 11 12 12 12 12 12 12 12 12 12 12 12 12 12 11 11 11 10 10 10 10 10 10 10 9 9 9 9 9 9 8 7 6 5 6 7 8 8 8 8
6 8 10 11 12 12 12 12 12 12 12 12 12 12 12 12 12 11 11 10 10 10 9 9 9 9 9 9 9 8 8 8 8 7 6 5 3 5 6 6 7 7 7
6 8 10 11 12 12 12 12 12 12 12 11 11 11 11 11 11 10 10 9 9 9 9 9 8 8 8 8 8 8 8 8 7 6 5 4 4 4 5 5 6 6 6
7 8 9 11 11 12 12 11 11 11 11 11 10 10 10 10 10 10 9 9 8 8 8 8 7 8 8 8 7 7 8 7 6 5 4 3 4 4 4 5 5 5 5
8 8 8 9 10 11 11 11 11 11 11 10 10 10 10 10 10 9 9 8 7 7 7 7 6 7 7 7 7 7 8 7 6 4 3 3 3 4 4 4 4 4 4
7 7 8 9 9 9 10 11 11 11 10 10 10 9 9 9 9 9 9 8 7 6 6 6 6 6 6 6 6 6 7 7 6 4 3 2 2 2 3 3 3 3 3
6 5 6 7 9 9 9 9 10 9 10 10 9 9 9 8 8 7 8 8 7 6 4 4 5 6 6 5 5 6 6 5 5 4 3 2 1 1 1 1 2 2 2
4 4 4 5 6 8 8 8 8 8 9 9 8 8 7 7 7 7 7 7 7 6 5 4 4 5 5 5 5 5 4 4 4 3 3 2 1 1 0 0 0 1 1
4 3 3 4 6 6 6 6 6 7 7 7 7 7 7 7 7 7 6 6 6 7 6 6 6 5 5 4 4 4 4 3 3 3 3 3 2 2 2 2 1 1 2
4 3 3 4 5 5 6 5 6 5 5 5 6 6 6 5 5 5 4 5 5 5 5 5 4 4 4 3 3 3 3 3 3 3 3 3 3 2 3 3 3 3 4
4 3 3 3 4 4 5 4 5 4 4 5 6 6 6 5 4 4 4 4 5 4 4 4 4 3 3 3 2 2 2 2 3 3 3 3 3 3 4 4 4 5 5
4 3 3 4 4 4 4 3 4 4 5 5 5 5 6 5 4 4 3 4 4 4 4 3 3 3 2 2 2 2 2 3 2 3 3 3 4 4 4 4 5 5 5
4 4 3 4 4 4 4 4 4 4 5 5 5 5 5 5 4 4 3 3 4 4 4 4 4 3 3 2 2 3 2 3 3 2 3 3 3 4 4 5 6 6 7
4 4 3 3 3 4 4 3 4 4 5 4 4 5 5 5 4 4 3 2 4 4 4 2 2 2 3 3 3 3 2 2 3 2 2 2 3 3 4 5 6 7 7
4 4 4 4 3 3 3 3 4 4 4 4 4 4 4 4 4 4 2 2 4 4 3 2 2 2 2 3 3 3 3 2 2 2 2 2 3 3 3 5 6 7 8
4 4 4 3 3 3 2 3 2 3 3 3 3 3 3 3 3 3 2 2 3 2 2 2 2 2 2 3 3 4 3 3 2 2 2 1 2 3 3 4 5 6 8
4 4 3 3 2 3 2 2 1 1 0 1 2 2 2 2 2 2 2 2 2 1 1 1 1 2 2 2 2 3 3 3 2 2 1 1 1 2 3 3 4 6 7
4 3 4 3 3 3 2 1 1 1 1 0 0 1 1 1 1 2 1 0 1 0 1 1 1 1 1 2 1 2 3 4 3 3 2 1 2 3 3 4 5 5 6
4 4 4 3 3 2 2 2 2 2 1 1 1 1 1 1 1 1 0 0 0 1 1 1 0 0 1 2 0 0 0 2 3 3 3 2 2 3 3 4 5 6 7
5 4 3 3 2 2 3 3 3 2 1 2 2 1 2 2 2 2 1 1 1 1 1 2 1 1 1 2 2 1 2 2 2 3 3 3 4 4 4 4 5 6 7
4 4 4 3 2 2 2 3 3 2 1 1 1 1 2 2 2 2 2 1 1 2 2 2 2 2 2 2 2 2 2 2 2 3 5 4 4 4 4 4 4 5 6
3 3 3 3 2 2 2 2 3 2 1 1 1 2 2 2 2 2 2 2 2 2 3 3 3 3 3 3 3 2 2 2 3 3 5 6 6 5 5 4 3 4 5
Wind_Direction
165 161 134 120 113 109 105 103 100 97 96 96 93 91 91 89 88 88 86 85 83 81 83 84 82 81 81 80 81 81 80 79 78 78 77 78 82 83 81 77 73 70 75
159 150 134 123 116 111 107 105 103 100 97 96 95 93 92 90 88 89 86 84 82 81 80 80 81 82 83 82 81 81 80 78 77 75 73 73 78 81 80 78 77 73 75
126 133 129 125 119 114 109 107 106 102 99 96 94 91 91 89 86 87 86 82 80 79 78 78 78 79 82 82 81 81 79 76 77 75 70 67 74 81 80 78 83 77 76
117 121 122 125 121 116 111 107 105 101 98 95 92 89 88 87 84 82 85 83 81 79 77 76 75 75 77 79 79 81 80 74 74 71 67 66 71 84 85 85 85 79 78
101 110 116 117 116 113 110 107 104 101 98 94 90 88 86 84 82 80 82 83 83 83 80 78 77 75 72 72 75 76 75 72 67 64 64 68 73 87 90 91 91 86 84
94 106 114 114 113 110 108 107 104 102 99 95 91 89 88 85 82 80 80 80 80 82 81 80 78 76 72 69 67 67 68 69 60 56 64 72 82 94 95 95 97 93 92
96 103 114 116 114 111 106 104 102 99 98 95 92 91 89 87 85 81 79 80 80 79 77 77 75 74 73 70 66 63 62 67 62 58 63 71 95 101 102 100 100 102 99
96 93 106 114 113 109 105 103 100 97 95 93 91 90 88 86 84 82 78 79 80 81 78 75 71 71 69 66 63 60 55 57 57 59 59 68 97 102 104 104 100 103 99
87 83 82 94 103 105 103 101 99 96 93 91 88 88 87 84 80 78 73 73 76 79 79 75 69 70 64 63 59 53 49 46 48 52 57 67 93 106 102 101 102 100 99
78 74 74 80 85 88 94 97 96 93 90 87 83 82 82 79 75 72 68 64 67 74 76 74 69 64 58 61 54 47 45 44 40 35 38 59 86 103 99 99 111 106 113
81 75 75 80 84 86 90 92 91 90 86 82 77 77 77 71 68 67 63 60 58 60 67 71 67 57 49 48 46 42 38 35 33 27 23 42 70 103 93 95 116 136 142
102 89 72 79 84 86 88 84 82 83 82 77 75 75 77 74 68 64 57 52 51 45 44 47 49 47 40 34 33 31 31 26 22 8 7 12 6 326 304 90 129 171 217
130 109 90 82 85 86 84 85 80 77 78 76 75 78 78 71 63 57 51 40 34 33 32 29 32 32 36 35 32 26 20 17 7 349 343 344 327 308 291 276 264 258 273
124 120 110 92 87 90 93 91 88 81 74 70 72 77 75 66 56 52 50 39 34 32 33 30 27 25 26 22 25 20 9 3 350 333 326 328 320 301 294 292 280 268 267
131 133 128 111 102 95 94 92 88 84 82 78 71 68 74 74 65 56 48 42 33 33 35 30 27 25 22 10 4 6 353 335 332 327 314 315 314 302 296 290 286 281 274
147 149 137 129 112 102 98 92 89 88 85 79 69 65 74 77 73 65 52 42 33 26 22 34 26 17 10 8 352 348 330 309 309 309 304 305 306 304 298 290 292 293 288
159 152 143 136 112 107 99 94 91 90 89 80 67 63 65 71 77 72 61 38 23 22 25 33 26 25 17 3 335 328 319 305 303 292 286 285 288 295 296 295 294 293 294
148 147 145 130 116 109 100 93 92 93 90 81 71 62 58 61 70 71 63 33 21 29 34 33 16 9 1 349 329 315 311 298 289 280 280 278 276 283 288 296 299 295 295
154 148 140 126 126 116 104 99 95 92 86 80 70 57 48 47 58 67 62 32 32 39 37 27 19 8 348 338 324 313 301 289 286 283 273 277 274 278 284 293 295 296 295
148 143 138 132 129 116 100 87 80 73 70 72 72 59 48 38 47 59 54 32 43 48 29 26 14 4 335 328 325 322 306 295 291 278 269 285 292 290 294 303 306 301 294
134 136 138 132 136 128 127 125 120 118 77 56 54 48 33 31 40 50 46 39 51 56 19 15 15 4 351 352 356 337 319 307 302 290 314 329 336 327 330 321 311 301 299
150 149 146 148 146 146 158 171 171 169 189 187 34 4 359 21 17 25 45 17 50 53 17 14 40 14 340 7 22 351 335 331 329 322 318 313 316 339 337 323 315 308 303
165 170 167 165 154 146 120 103 79 57 43 22 310 283 315 311 325 330 289 273 250 174 227 253 196 97 298 308 319 143 326 289 311 305 299 302 315 322 317 316 318 313 307
182 174 167 167 155 156 138 136 137 146 207 244 243 243 296 300 293 293 284 259 248 236 233 243 233 219 213 272 290 277 246 233 270 303 302 309 315 305 299 310 308 309 309
174 170 171 166 163 161 158 162 164 180 224 267 284 266 278 300 294 290 280 261 261 262 249 236 234 234 220 235 249 273 279 280 246 256 283 298 304 285 286 284 291 302 311
162 162 163 166 174 169 165 177 179 189 215 258 289 269 274 283 296 298 294 277 260 260 254 244 231 235 236 242 251 247 249 253 257 255 270 289 295 290 287 272 270 286 302
Height
1527 1528 1529 1529 1530 1530 1531 1531 1532 1532 1532 1533 1533 1533 1533 1533 1533 1533 1533 1533 1533 1533 1533 1534 1534 1533 1533 1533 1533 1533 1532 1532 1532 1532 1532 1532 1532 1532 1531 1531 1531 1530 1529
1526 1527 1529 1529 1530 1531 1531 1531 1532 1532 1533 1533 1533 1534 1534 1534 1534 1534 1534 1534 1534 1534 1534 1534 1534 1534 1534 1534 1534 1534 1533 1533 1533 1533 1533 1533 1533 1533 1532 1532 1532 1531 1531
1526 1527 1528 1529 1530 1531 1531 1532 1532 1532 1533 1533 1534 1534 1534 1534 1534 1535 1534 1534 1534 1535 1535 1535 1535 1535 1535 1535 1535 1535 1534 1534 1534 1534 1534 1534 1534 1533 1533 1533 1533 1532 1532
1526 1527 1528 1529 1530 1531 1531 1532 1532 1532 1533 1534 1534 1534 1535 1535 1535 1535 1535 1535 1535 1535 1535 1536 1536 1536 1535 1535 1535 1535 1535 1535 1535 1535 1534 1534 1534 1534 1534 1534 1533 1533 1533
1525 1526 1527 1529 1529 1530 1531 1532 1532 1533 1533 1534 1534 1534 1535 1535 1535 1535 1536 1535 1536 1536 1536 1536 1536 1536 1536 1536 1536 1536 1536 1535 1535 1535 1535 1535 1535 1534 1534 1534 1534 1534 1533
1525 1526 1527 1528 1529 1530 1531 1532 1533 1533 1533 1534 1534 1534 1535 1535 1535 1535 1535 1536 1536 1536 1536 1536 1536 1536 1536 1536 1536 1536 1536 1535 1535 1535 1535 1535 1535 1535 1534 1534 1534 1534 1533
1525 1526 1527 1528 1529 1530 1531 1532 1533 1533 1533 1534 1534 1534 1535 1535 1535 1535 1535 1535 1536 1536 1536 1536 1536 1536 1536 1536 1536 1536 1535 1535 1535 1535 1535 1535 1535 1535 1535 1534 1534 1534 1533
1525 1526 1527 1528 1529 1530 1531 1532 1532 1533 1533 1534 1534 1534 1535 1535 1535 1535 1535 1535 1535 1535 1535 1535 1536 1536 1535 1535 1535 1535 1535 1535 1535 1535 1535 1535 1535 1535 1535 1534 1534 1534 1533
1525 1526 1527 1527 1529 1530 1531 1531 1532 1532 1533 1533 1534 1534 1534 1534 1535 1535 1535 1535 1535 1535 1535 1535 1535 1535 1535 1535 1535 1535 1534 1534 1534 1534 1534 1534 1534 1534 1534 1534 1533 1533 1533
1525 1525 1526 1527 1528 1529 1530 1531 1531 1532 1532 1533 1533 1534 1534 1534 1534 1534 1534 1534 1534 1534 1534 1534 1534 1534 1534 1534 1534 1534 1534 1534 1533 1533 1533 1534 1534 1533 1533 1533 1533 1532 1532
1524 1525 1525 1526 1527 1528 1529 1530 1531 1531 1532 1532 1533 1533 1533 1533 1534 1533 1533 1533 1533 1533 1533 1533 1533 1533 1533 1533 1533 1533 1533 1533 1533 1532 1532 1532 1532 1532 1532 1532 1532 1531 1531
1522 1523 1524 1525 1526 1527 1528 1529 1530 1530 1531 1531 1532 1532 1532 1532 1532 1532 1532 1532 1532 1532 1532 1531 1531 1531 1531 1531 1531 1531 1531 1531 1531 1531 1531 1531 1531 1531 1531 1531 1530 1530 1530
1521 1522 1523 1524 1525 1527 1527 1528 1529 1529 1530 1530 1531 1531 1531 1531 1531 1531 1531 1531 1531 1531 1530 1530 1530 1530 1530 1530 1530 1530 1530 1529 1529 1529 1529 1529 1529 1529 1529 1529 1528 1528 1528
1520 1521 1522 1523 1524 1525 1526 1527 1528 1528 1529 1529 1529 1529 1529 1529 1530 1530 1530 1529 1529 1529 1529 1528 1528 1528 1528 1528 1528 1528 1528 1527 1527 1527 1527 1527 1527 1527 1527 1526 1526 1526 1526
1518 1520 1521 1522 1523 1524 1525 1526 1526 1527 1527 1528 1528 1528 1528 1528 1528 1528 1528 1528 1527 1527 1527 1527 1526 1526 1526 1526 1526 1525 1525 1525 1525 1525 1524 1524 1524 1524 1524 1524 1524 1523 1523
1517 1518 1519 1521 1521 1522 1523 1524 1525 1525 1526 1526 1526 1526 1526 1526 1526 1526 1526 1526 1526 1525 1525 1525 1525 1524 1524 1523 1523 1523 1523 1523 1522 1522 1522 1522 1522 1521 1521 1521 1521 1521 1520
1515 1517 1518 1519 1520 1521 1521 1522 1523 1524 1524 1524 1525 1525 1525 1525 1525 1524 1524 1524 1524 1524 1523 1523 1522 1522 1521 1521 1521 1520 1520 1520 1520 1519 1519 1519 1518 1518 1518 1518 1518 1517 1517
1514 1515 1516 1517 1518 1519 1520 1520 1521 1522 1522 1523 1523 1523 1523 1523 1523 1523 1522 1522 1522 1521 1521 1520 1520 1519 1519 1518 1518 1517 1517 1517 1517 1516 1516 1516 1515 1515 1515 1515 1514 1514 1514
1512 1513 1514 1515 1516 1517 1518 1519 1519 1520 1520 1520 1521 1521 1521 1521 1521 1520 1520 1520 1519 1519 1518 1518 1517 1517 1516 1515 1515 1514 1514 1514 1513 1513 1513 1513 1512 1512 1512 1511 1511 1510 1510
1510 1511 1512 1513 1514 1515 1516 1517 1517 1518 1518 1518 1519 1519 1519 1519 1518 1518 1518 1517 1517 1516 1516 1515 1515 1514 1514 1513 1512 1511 1511 1510 1510 1510 1510 1509 1509 1509 1508 1507 1507 1506 1506
1508 1509 1510 1511 1512 1513 1514 1514 1514 1515 1516 1516 1516 1517 1517 1516 1516 1515 1515 1515 1514 1514 1513 1512 1512 1511 1511 1510 1509 1508 1507 1507 1506 1506 1506 1506 1506 1505 1505 1504 1503 1502 1502
1505 1506 1508 1509 1510 1511 1511 1512 1512 1513 1513 1514 1514 1514 1514 1514 1513 1513 1512 1512 1511 1511 1510 1510 1509 1508 1508 1507 1507 1505 1504 1504 1503 1503 1503 1503 1502 1502 1501 1500 1499 1498 1497
1503 1504 1505 1506 1507 1508 1509 1509 1510 1510 1511 1511 1511 1511 1511 1511 1511 1510 1510 1509 1508 1508 1507 1507 1506 1506 1505 1505 1505 1505 1503 1501 1500 1499 1499 1499 1498 1498 1497 1496 1495 1494 1493
1500 1502 1503 1504 1505 1506 1506 1506 1506 1507 1507 1507 1507 1508 1508 1508 1507 1507 1507 1506 1506 1505 1504 1504 1503 1503 1502 1502 1502 1502 1502 1500 1499 1495 1494 1495 1495 1494 1493 1492 1491 1490 1489
1498 1499 1500 1501 1502 1503 1503 1503 1504 1504 1504 1504 1504 1504 1504 1504 1504 1503 1503 1503 1502 1501 1501 1500 1500 1499 1499 1498 1498 1498 1498 1497 1496 1495 1491 1489 1489 1489 1489 1488 1487 1486 1485
1496 1497 1498 1499 1499 1500 1501 1501 1501 1501 1501 1500 1500 1500 1500 1500 1500 1500 1499 1499 1498 1498 1497 1497 1496 1496 1495 1495 1494 1494 1493 1493 1492 1491 1488 1485 1484 1483 1483 1483 1482 1481 1480